Wind_Speed
25 25 25 24 25 26 26 25 23 21 19 16 11 9 9 8 9 10 11 12 13 15 16 18 20 20 19 19 19 17 16 16 15 15 14 12 10 9 8 7 7 6 6 6 6 7 8 8 8 8 8 8 8 8 8 7 7 7 7 7 6 6 6 6 6 6 6 6 5 5 6 6 6 6 7 7 7 6 6 6 6 6 6 6 6
26 24 24 23 24 26 26 25 22 21 18 16 11 8 8 8 8 9 10 11 13 14 16 18 20 20 20 19 19 17 17 16 15 14 14 12 10 9 8 7 6 6 6 6 7 7 8 8 8 8 8 8 8 7 7 7 7 8 8 8 7 7 7 6 6 6 6 6 6 6 6 6 6 7 7 7 7 7 6 6 6 6 6 6 6
26 24 23 23 24 25 26 25 22 21 18 15 10 7 7 7 8 9 10 11 12 13 15 17 19 20 20 20 19 18 17 17 15 14 14 12 9 8 7 6 6 5 5 6 6 7 7 7 8 8 8 8 7 7 7 8 8 8 8 8 8 8 7 7 7 6 6 6 6 6 6 7 7 7 7 7 7 7 7 7 7 7 7 7 7
26 24 24 23 24 24 25 24 21 20 17 14 10 7 7 7 8 8 9 10 12 13 14 16 18 19 20 20 19 18 17 17 16 14 13 12 9 8 6 5 5 5 5 5 6 6 7 7 8 8 8 7 7 8 8 8 8 8 8 8 8 8 8 7 7 6 6 6 6 6 6 7 7 7 7 7 7 7 8 8 8 8 8 8 8
27 25 24 23 23 24 24 23 21 20 16 13 9 7 7 7 7 8 8 10 11 12 14 15 18 19 20 20 19 17 17 17 16 14 13 11 9 8 6 5 4 4 4 5 5 6 7 7 8 9 9 8 8 9 9 9 9 9 9 9 9 8 8 8 7 7 6 6 6 6 6 6 7 7 7 7 8 8 8 8 8 8 8 8 8
28 25 24 23 23 23 23 22 20 19 16 12 9 7 7 7 7 8 8 9 11 12 13 15 17 18 19 20 19 17 16 17 15 14 12 11 9 8 6 5 4 4 4 5 6 7 8 9 9 9 9 10 10 10 9 9 9 9 9 9 9 9 8 8 8 7 6 6 6 6 6 7 7 7 8 8 8 8 8 8 8 8 8 8 8
29 26 24 23 23 23 23 22 20 18 15 12 9 8 7 7 7 8 8 9 10 12 13 14 16 18 19 19 19 16 15 16 15 13 12 11 9 8 7 5 5 4 5 6 7 8 9 10 10 10 10 10 11 10 10 10 9 10 9 9 9 9 9 9 8 8 7 7 7 6 7 7 8 8 8 8 9 9 9 9 9 9 9 9 9
30 26 24 23 23 23 23 21 19 18 15 12 10 8 8 8 8 8 8 9 10 12 13 14 16 18 18 19 19 16 14 15 15 12 11 10 9 8 7 6 6 6 6 7 8 9 10 11 11 11 10 11 11 11 11 10 10 10 10 9 9 10 10 9 9 9 8 8 8 8 8 8 8 9 9 10 10 10 10 10 10 10 9 9 10
30 25 23 23 23 23 23 21 19 17 14 12 10 9 9 9 8 8 8 9 10 12 13 14 16 17 17 18 18 15 13 15 15 13 11 10 9 8 7 7 7 7 8 9 10 11 11 12 12 11 11 11 11 12 12 11 10 10 10 9 9 10 10 10 9 9 9 9 9 9 9 9 9 10 10 11 11 12 12 12 11 11 10 10 10
27 23 22 22 23 23 23 21 18 17 14 12 11 10 9 9 9 8 9 9 10 11 13 14 15 16 16 16 17 15 13 14 15 14 11 10 9 8 8 8 8 8 9 10 11 12 13 13 12 12 12 12 12 12 12 12 12 11 11 10 10 10 10 10 10 10 10 10 10 10 10 10 10 11 11 11 12 13 13 13 12 12 11 11 11
24 21 21 22 22 23 23 20 18 16 13 12 11 10 10 9 9 8 9 10 10 11 13 14 15 16 15 15 16 15 13 14 15 14 12 11 10 9 9 9 9 10 10 12 13 13 14 14 13 13 13 13 13 13 13 13 13 12 12 12 11 11 11 10 10 10 10 10 10 11 11 11 12 12 12 13 13 14 14 14 14 13 13 12 12
21 19 20 21 22 23 22 19 17 15 13 12 11 10 10 9 9 9 10 10 10 11 13 14 15 15 14 14 15 14 13 13 14 14 13 12 11 11 10 11 11 11 12 13 13 14 14 14 14 14 15 15 15 15 15 14 14 14 13 12 12 12 11 11 11 11 10 10 11 11 12 12 13 13 13 14 14 14 15 15 15 15 14 14 14
19 19 19 21 22 23 20 17 16 14 13 11 10 10 10 9 9 10 10 10 10 11 12 14 15 14 13 13 14 13 13 13 14 14 13 13 12 12 12 12 12 12 12 13 14 14 15 15 15 15 16 17 17 17 16 16 15 15 14 14 13 13 13 13 12 12 12 12 12 12 13 13 13 14 14 15 14 15 15 16 16 16 16 15 15
18 18 19 21 22 21 18 16 15 13 12 11 10 9 9 9 9 10 10 10 10 11 12 13 14 13 12 13 14 13 13 13 13 14 14 13 13 12 12 12 12 12 12 14 15 15 15 15 15 16 18 18 19 19 18 17 16 16 15 15 15 14 14 14 14 14 14 13 13 14 14 14 14 15 15 16 15 15 16 16 16 17 16 16 16
17 17 19 21 21 19 16 15 14 12 11 10 9 9 9 9 10 10 10 10 10 11 12 13 12 11 12 14 14 14 13 13 13 14 14 13 13 13 13 13 13 12 13 14 15 15 15 15 16 18 19 19 19 19 19 18 17 17 16 16 16 16 15 15 16 15 15 14 14 14 15 15 15 15 16 16 16 16 16 16 17 17 17 16 16
16 17 19 20 19 16 15 15 13 11 10 9 9 10 9 9 10 10 10 10 10 10 11 12 11 11 13 14 15 15 14 13 13 13 13 13 13 13 13 13 13 13 13 14 14 15 15 15 17 18 19 19 19 19 18 18 18 17 17 17 16 16 16 16 17 17 16 15 15 15 15 15 16 16 16 16 16 17 17 17 17 18 18 17 16
16 17 19 17 15 14 14 14 12 11 10 10 10 10 10 10 10 11 10 10 10 10 11 11 10 12 14 15 16 15 14 13 12 12 12 11 12 12 13 12 12 13 14 14 14 14 14 15 16 17 17 17 17 17 17 17 17 17 17 17 17 17 17 17 17 17 17 17 16 16 16 17 17 17 16 16 16 17 17 17 17 18 18 17 16
17 17 16 15 14 13 13 13 12 11 11 11 11 10 10 10 11 11 10 9 9 10 10 9 10 12 14 15 16 16 14 13 12 11 10 10 10 11 12 11 12 14 15 15 13 12 13 14 15 15 15 15 16 16 16 16 16 16 16 17 17 17 18 18 18 17 17 18 18 18 18 18 18 18 18 18 18 17 17 17 17 17 17 17 16
17 16 14 14 13 13 13 12 12 11 11 11 10 10 10 10 11 11 10 9 8 9 9 8 10 12 14 15 16 16 15 13 12 10 9 8 9 10 11 11 12 14 16 15 13 12 12 13 13 13 14 14 14 14 14 15 15 15 16 16 17 18 18 18 18 18 18 18 19 19 19 19 19 19 19 19 19 19 18 18 17 16 16 16 16
16 14 14 14 14 14 13 12 12 11 11 10 10 10 11 11 11 10 9 8 8 9 8 8 11 12 14 15 16 15 15 14 12 10 8 8 8 9 10 12 12 13 14 14 13 12 11 11 12 12 13 14 14 14 14 14 14 14 15 15 16 17 18 19 19 20 19 19 19 20 19 19 19 19 19 20 19 19 19 18 17 16 16 15 15
15 14 14 15 15 14 13 13 12 11 10 9 10 11 11 11 10 9 9 8 8 8 7 9 11 13 14 15 15 15 14 14 12 10 8 7 8 9 10 11 12 13 13 12 12 13 12 11 12 12 13 14 14 14 14 14 15 15 15 14 15 17 18 18 19 20 20 19 19 20 20 19 19 19 19 19 19 19 19 18 18 17 16 15 15
15 14 16 16 15 14 14 13 12 11 10 10 11 11 11 10 10 9 8 8 8 7 7 9 11 13 14 15 15 15 14 13 11 9 8 7 8 9 9 10 11 11 12 11 12 12 12 12 12 13 13 14 14 14 15 15 16 16 16 15 15 16 17 18 18 19 19 19 19 20 20 20 19 19 19 19 19 19 19 18 17 17 16 16 15
15 15 17 16 14 14 13 13 12 11 11 11 12 12 11 10 10 9 8 7 7 7 7 9 11 12 14 15 15 15 14 13 11 8 7 7 8 8 8 8 9 10 11 11 11 12 12 13 13 14 14 14 14 15 15 15 16 17 17 16 16 16 17 18 18 18 19 19 19 19 20 20 20 19 19 19 19 19 19 18 17 17 16 16 15
16 16 17 15 14 13 13 13 12 12 12 12 12 12 12 11 10 9 8 8 8 8 8 10 11 12 13 14 15 14 14 12 10 8 8 8 8 8 7 7 8 9 10 11 11 11 12 13 14 15 15 15 15 15 15 15 16 17 18 18 18 18 18 18 18 19 19 19 19 19 19 20 20 19 19 19 19 19 19 18 17 16 16 16 16
16 17 16 15 14 13 13 13 13 13 13 13 13 13 12 11 11 10 9 9 9 9 9 10 11 11 13 14 14 14 13 11 10 10 10 10 8 7 7 7 8 9 10 10 10 10 11 13 15 16 17 17 17 16 16 15 15 16 18 18 19 19 20 20 20 20 20 19 20 20 20 20 20 19 19 20 20 20 19 19 18 17 17 17 17
17 16 16 15 14 14 14 14 14 14 14 14 14 14 13 13 12 11 11 10 10 11 11 11 11 11 12 13 14 13 11 11 11 11 11 11 10 9 9 9 9 9 9 9 10 11 12 14 16 17 18 19 19 18 17 16 16 16 17 18 18 19 21 21 21 21 21 21 21 22 21 21 21 20 20 20 20 20 20 20 20 18 18 18 17
17 17 16 15 15 15 15 15 15 15 15 15 15 15 14 14 13 12 12 11 12 12 13 12 11 11 11 13 13 12 11 10 10 10 10 11 10 9 10 9 10 10 9 9 10 12 13 15 17 18 18 19 20 20 19 18 17 17 18 18 18 19 21 22 22 22 22 21 21 22 22 21 21 21 20 20 20 19 19 20 21 20 19 19 18
18 18 17 17 16 16 16 16 16 16 16 16 16 16 15 15 14 13 13 13 14 14 14 13 12 11 11 12 13 13 11 10 11 11 10 10 10 10 10 10 10 11 11 11 12 13 15 16 17 18 18 19 19 19 19 19 20 20 20 20 20 21 22 23 23 23 23 22 22 22 22 22 21 21 21 20 20 19 19 19 20 20 20 20 19
19 19 19 19 18 18 18 17 17 17 17 17 17 16 16 15 15 14 14 14 15 15 15 13 12 12 10 11 13 14 13 12 11 11 10 10 10 11 11 11 11 12 13 13 14 14 15 15 16 17 18 18 17 17 18 19 20 22 23 23 23 24 24 24 24 24 24 24 23 22 22 23 22 22 22 21 21 20 19 19 19 20 20 20 20
21 21 21 21 20 20 20 19 19 18 18 18 17 17 16 16 16 16 15 15 16 16 15 14 13 12 10 11 13 13 13 12 11 11 12 11 11 11 12 12 12 13 14 14 14 14 14 15 16 16 17 17 17 17 18 19 20 21 23 24 25 25 25 25 25 25 25 25 25 23 23 24 23 23 23 23 22 21 20 19 19 20 20 20 20
22 23 23 23 22 22 22 21 20 20 19 18 17 17 16 17 16 16 16 17 17 17 16 15 14 12 12 11 12 13 13 13 12 12 12 12 12 12 12 13 13 13 13 13 14 14 15 15 15 16 16 17 17 18 18 19 20 21 22 24 25 25 26 26 26 26 25 25 26 25 24 24 24 23 24 24 23 23 21 20 19 19 20 20 20
25 25 24 24 24 23 23 23 22 21 20 19 18 17 17 17 17 17 17 17 17 16 16 14 13 12 12 12 12 13 13 13 13 13 13 14 14 13 13 13 14 14 13 13 14 14 15 16 16 16 17 17 18 18 19 20 20 20 22 24 24 25 25 26 26 26 26 26 25 26 25 24 24 24 23 24 24 24 23 22 20 18 19 20 21
27 26 25 25 25 25 24 24 23 23 22 20 19 18 17 17 17 18 18 18 17 16 15 13 12 13 13 12 13 13 13 13 14 14 15 15 15 15 15 15 15 15 15 14 15 15 15 16 17 17 18 18 18 19 20 20 21 21 22 23 24 25 25 25 26 26 26 26 25 25 26 25 24 24 24 24 23 24 24 23 21 19 18 19 21
28 27 27 26 26 26 25 25 24 23 23 21 20 18 18 18 18 18 17 17 17 16 15 14 14 14 13 13 14 14 14 14 14 15 16 16 16 16 16 16 16 16 17 16 17 17 17 18 18 18 19 19 20 20 21 21 22 22 22 24 25 26 26 25 25 26 26 26 25 25 26 27 26 25 25 24 24 23 23 23 22 21 19 19 20
30 29 28 28 27 27 26 25 25 24 23 21 20 19 18 18 18 17 16 16 16 15 15 15 15 15 14 14 15 15 15 15 15 16 16 17 17 17 18 17 17 18 18 19 19 19 19 19 20 20 20 20 21 21 22 22 23 23 23 24 25 26 26 26 25 26 26 26 26 25 25 26 27 27 26 24 24 23 22 23 22 21 20 19 19
33 31 31 30 28 26 26 26 25 24 24 22 20 19 18 17 17 16 16 15 15 15 15 16 15 15 16 16 16 16 16 16 16 16 16 17 18 18 19 19 19 19 19 20 20 20 20 21 21 21 21 21 21 22 22 22 23 23 23 24 25 25 26 26 25 26 26 25 25 25 25 25 26 26 26 25 24 24 24 24 22 21 21 20 19
35 34 32 29 26 26 27 27 26 25 24 23 21 19 18 17 16 16 16 16 16 16 16 16 16 16 16 17 17 17 17 17 17 17 17 18 19 19 20 20 21 21 21 21 20 20 21 22 22 22 22 22 22 23 23 23 24 24 24 24 25 25 25 25 25 25 25 25 24 25 25 25 25 24 24 25 25 25 26 26 24 22 21 22 20
34 34 30 28 27 28 27 26 25 25 24 23 21 18 17 16 16 16 16 16 16 16 16 16 16 16 17 17 17 17 17 18 18 18 18 18 19 20 20 21 22 22 22 23 23 22 22 23 23 23 23 24 24 25 25 25 25 25 25 26 26 25 26 26 26 25 25 24 23 23 24 24 24 24 23 24 24 25 25 26 27 26 23 23 22
31 30 29 30 30 27 26 24 22 22 21 21 19 18 17 16 15 15 14 14 15 16 16 16 16 17 17 17 17 17 18 18 19 19 19 19 20 21 21 22 22 23 23 24 24 24 24 24 24 25 25 25 25 25 26 26 26 26 26 27 27 26 26 26 26 26 25 25 24 23 23 23 23 23 22 22 23 24 25 24 27 28 26 24 23
30 31 30 28 27 26 24 21 22 21 19 19 18 17 16 15 14 13 12 12 13 14 15 15 16 16 17 17 17 18 18 19 19 19 20 20 21 22 22 23 23 24 24 25 25 25 26 26 26 26 25 25 25 25 26 26 26 26 27 27 27 26 26 26 26 26 25 25 24 23 23 24 24 23 22 22 22 23 24 24 25 27 27 25 23
31 31 29 25 22 23 23 21 23 22 20 19 17 16 15 14 13 12 12 11 12 14 15 15 16 17 17 18 18 18 19 19 19 20 21 21 21 22 22 23 23 24 24 25 26 26 26 26 27 27 27 27 27 26 26 26 26 26 27 27 28 27 26 26 26 26 25 24 24 24 23 24 25 25 24 23 22 22 23 24 24 25 26 26 25
31 28 23 22 20 20 21 20 21 21 19 16 13 14 15 13 12 12 13 13 14 15 16 17 18 18 18 18 18 18 19 19 20 21 21 21 22 22 23 23 24 24 24 25 26 26 26 27 27 28 28 28 28 28 28 27 27 27 27 28 28 29 27 26 26 26 25 24 24 24 24 24 24 24 25 24 23 22 23 23 24 24 25 26 27
26 29 22 20 19 19 18 18 19 18 17 14 11 12 12 10 11 13 14 15 16 17 17 18 19 19 19 19 19 19 19 20 20 21 22 22 22 23 23 24 24 25 26 26 27 27 27 27 28 29 29 30 30 30 29 29 29 28 28 29 29 29 29 28 27 27 26 25 25 24 24 24 24 24 25 25 24 24 23 23 23 24 24 24 25
20 23 23 20 19 19 18 17 18 17 16 16 14 13 11 10 12 14 16 17 18 18 19 19 19 18 18 19 19 19 20 20 21 21 22 23 23 23 23 24 24 25 26 26 27 27 28 28 28 29 29 30 31 31 31 31 31 30 29 30 29 30 31 30 29 28 28 27 25 25 24 24 24 24 24 25 25 25 25 25 24 24 24 23 23
20 18 19 21 20 19 18 17 18 17 15 14 13 13 14 14 15 16 17 18 18 19 19 18 18 17 18 18 19 19 20 20 21 21 22 23 23 24 24 24 24 25 26 26 27 27 28 28 28 29 29 30 30 31 32 32 32 32 31 31 30 30 31 31 30 29 29 29 28 26 26 24 24 24 24 24 25 25 25 26 25 24 25 25 24
25 23 21 21 21 20 17 17 16 14 11 10 11 12 14 15 16 17 18 18 19 18 18 18 18 18 19 19 19 20 20 20 21 21 22 22 23 24 24 25 25 26 26 27 27 28 28 28 29 29 30 30 30 31 32 32 33 33 33 33 32 31 31 31 31 29 29 31 31 29 28 27 26 25 25 25 25 26 26 27 26 25 25 25 25
22 26 26 23 24 23 19 16 14 14 13 13 14 15 15 16 17 17 18 18 18 18 18 18 19 19 20 21 21 20 20 21 21 21 22 22 23 24 24 25 25 26 27 28 28 29 30 30 30 30 31 31 31 31 31 32 33 33 33 34 34 33 32 32 32 30 28 29 31 31 30 29 28 28 27 27 27 27 27 28 28 28 26 26 26
18 23 24 21 22 22 20 17 15 15 16 16 17 17 17 17 17 17 17 18 18 18 19 19 19 20 21 22 22 22 22 22 22 22 23 23 24 24 24 25 25 26 27 28 29 30 31 32 32 32 33 33 33 33 33 33 33 33 34 34 35 35 34 34 33 33 30 28 29 31 31 30 29 30 30 29 28 28 28 28 29 29 28 27 27
15 17 19 18 17 17 17 18 16 16 17 18 18 17 17 16 16 17 17 18 19 19 19 20 20 21 22 22 22 23 23 23 23 23 24 24 24 25 25 26 26 27 28 29 30 31 31 32 33 34 34 35 34 35 35 35 34 34 34 34 35 35 36 35 35 34 34 31 29 30 31 31 30 30 31 30 30 31 30 29 29 30 30 29 28
14 15 17 18 18 16 16 17 17 18 19 20 19 17 17 16 16 17 18 19 20 20 20 20 21 22 22 23 23 23 24 24 25 25 25 25 25 26 26 27 28 28 29 30 31 32 32 33 34 34 35 35 36 36 36 36 36 36 35 35 36 36 36 37 36 36 35 34 32 31 30 31 29 29 32 32 32 33 33 32 31 30 30 30 30
15 16 17 18 17 16 16 16 17 18 19 19 18 16 16 16 17 18 19 19 20 20 21 21 22 22 23 24 24 24 25 26 26 27 27 27 27 27 28 28 29 30 31 32 33 33 34 34 35 36 36 36 36 37 37 37 37 37 37 37 37 37 37 37 37 37 37 36 35 33 32 32 30 29 31 32 32 33 34 34 34 32 31 31 31
Wind_Direction
324 326 328 332 331 329 334 334 335 335 334 335 333 319 319 328 337 345 344 349 352 354 355 357 356 355 355 354 354 354 358 2 5 6 7 6 1 357 357 5 13 19 27 39 44 43 45 42 36 30 26 23 19 15 10 6 2 359 357 355 355 352 349 347 341 336 333 329 323 314 305 298 293 292 293 292 292 293 293 296 298 301 305 307 309
322 323 324 327 326 326 331 331 332 332 330 332 330 314 315 324 333 342 343 346 349 351 353 355 356 356 356 355 354 354 357 1 3 4 5 6 2 359 359 4 14 21 31 41 44 42 41 40 36 28 23 22 18 11 5 1 358 356 354 353 351 350 347 343 336 333 328 322 313 304 299 295 293 293 295 295 296 298 299 301 305 308 309 309 308
319 319 320 322 322 323 327 327 329 330 327 328 324 308 311 320 329 338 340 343 346 348 350 353 356 357 357 356 354 355 356 359 2 3 4 4 4 1 360 4 15 23 30 40 44 43 37 34 31 25 19 18 14 7 2 359 357 353 352 351 348 346 343 338 334 330 322 314 305 299 297 296 295 295 298 301 302 303 305 308 311 312 311 311 312
316 316 315 317 318 320 323 324 326 327 324 323 318 301 305 314 324 332 336 340 342 345 347 351 355 357 357 356 354 354 356 357 359 2 2 2 5 3 0 6 15 23 26 32 36 35 30 23 20 18 14 9 6 4 3 359 355 351 349 348 346 343 338 336 332 327 319 311 303 299 297 297 295 296 300 303 304 306 308 310 312 313 312 313 314
315 313 312 313 314 316 319 320 323 325 320 318 311 294 298 306 317 324 332 336 338 341 344 348 353 356 356 355 353 353 356 356 356 358 0 1 3 4 1 4 11 15 14 17 18 19 15 9 7 8 6 360 359 2 2 358 353 348 348 346 344 341 337 335 331 326 319 312 305 301 297 297 296 297 299 301 303 305 307 309 310 311 311 311 312
312 311 310 309 310 312 315 316 319 321 316 312 302 287 292 297 308 317 326 331 333 337 341 346 350 353 353 353 351 351 354 354 354 355 357 358 360 0 358 356 357 356 352 355 357 0 359 355 355 358 358 354 356 358 357 356 351 347 347 345 342 339 336 334 330 325 319 313 307 303 299 296 297 298 299 301 302 304 305 305 306 306 306 307 309
310 309 308 306 306 308 311 312 314 315 310 306 294 281 284 289 300 310 320 326 330 334 338 343 348 351 350 350 350 348 350 351 352 351 352 355 355 354 349 345 343 338 335 339 342 346 347 347 347 349 350 350 353 355 354 354 350 347 346 345 342 339 336 334 330 324 319 314 310 308 305 301 300 300 300 301 301 301 301 302 302 302 303 306 309
307 308 304 301 301 304 308 308 309 309 303 297 286 276 277 282 292 304 316 322 327 331 335 340 345 348 348 348 348 346 346 349 349 347 347 349 348 346 340 333 330 327 326 330 333 337 338 339 340 342 345 347 351 353 352 352 350 347 345 345 343 340 337 335 330 325 320 316 316 315 309 306 304 302 301 301 301 301 301 301 301 301 302 304 307
306 305 298 295 297 301 304 304 304 301 294 289 279 271 273 278 287 301 312 318 325 328 331 336 341 345 346 345 347 345 343 346 347 343 341 342 339 336 330 324 321 322 324 325 326 328 330 332 335 339 343 346 349 350 350 349 348 345 345 345 343 340 337 336 332 328 324 320 318 316 311 308 306 303 302 301 301 301 302 301 300 299 300 302 303
303 298 291 290 294 299 301 300 297 293 286 280 272 266 269 275 285 299 307 314 321 324 327 332 338 342 343 344 346 346 343 345 344 340 336 335 332 327 320 316 316 320 322 323 323 324 325 328 333 340 344 345 346 347 347 346 345 343 344 344 342 340 337 335 332 329 326 322 319 314 310 307 304 303 302 302 302 302 302 300 299 299 300 301 301
299 291 285 287 292 295 298 295 289 285 277 271 266 262 268 275 286 298 304 310 318 321 325 330 335 339 341 345 349 348 343 342 342 338 333 330 327 322 315 311 313 317 321 322 323 323 324 328 334 340 343 344 344 343 343 344 342 341 342 342 340 337 334 332 329 328 324 321 318 312 309 306 303 302 302 303 303 301 301 300 300 301 303 303 302
292 284 282 285 289 292 294 288 282 278 268 264 261 261 269 276 287 296 301 307 315 320 324 327 331 336 340 346 350 349 341 337 338 336 330 328 325 320 315 312 312 315 321 322 323 324 325 329 334 339 342 343 342 341 340 340 340 339 339 339 338 335 332 330 328 325 323 321 318 313 309 306 304 302 302 302 302 301 301 302 303 305 307 306 304
284 279 280 284 287 290 288 278 273 270 262 258 257 262 270 278 287 293 299 305 312 318 321 324 329 334 340 346 349 346 339 332 333 334 329 325 324 321 318 316 314 317 321 324 324 325 326 329 333 337 340 340 340 339 337 337 337 337 337 337 337 335 333 331 328 326 325 324 320 315 311 307 304 302 301 300 300 300 301 303 304 307 308 309 307
277 277 279 283 285 286 278 266 263 262 258 254 256 263 270 278 285 290 296 302 310 315 317 321 328 334 340 343 344 342 337 329 329 330 327 322 323 324 321 320 320 320 322 324 325 325 328 330 333 336 337 338 338 337 336 335 335 335 335 335 336 335 334 331 329 327 326 324 321 317 314 310 307 304 302 300 299 299 300 301 303 305 307 308 308
272 276 280 282 282 278 266 255 256 253 251 252 255 259 266 274 281 287 294 300 307 311 314 321 329 334 338 340 339 338 334 329 326 327 326 321 322 325 323 322 323 322 324 326 327 327 329 331 334 335 336 337 337 337 336 335 335 335 334 334 334 334 332 329 327 326 325 323 321 318 316 314 311 309 306 304 302 300 300 301 303 304 306 308 308
271 277 280 280 276 266 254 249 248 245 245 248 251 255 261 269 277 284 291 299 305 308 315 323 330 332 335 336 335 335 333 330 325 324 324 321 321 323 323 322 322 322 323 327 328 327 328 331 333 335 336 337 338 338 337 336 336 335 333 332 332 331 329 326 324 322 322 321 319 318 318 317 316 314 312 311 308 306 305 306 307 308 308 309 308
273 276 277 273 263 253 245 242 241 239 240 244 248 252 258 267 276 284 291 297 301 309 319 325 328 330 332 332 333 333 332 330 324 320 320 319 320 320 321 320 320 320 320 323 327 326 326 330 332 334 335 337 338 339 338 336 336 334 332 331 329 328 326 324 322 321 320 318 317 318 319 321 321 319 317 317 316 314 313 313 313 313 313 311 310
273 274 272 262 251 243 238 236 235 236 238 243 249 254 262 270 278 285 291 295 304 313 320 323 325 327 329 330 330 330 330 328 322 318 317 317 318 318 318 317 317 316 316 318 322 325 325 327 329 331 333 335 336 337 336 335 334 332 330 330 328 327 325 322 321 321 320 319 319 319 320 322 322 321 321 321 322 321 320 319 319 319 318 315 313
271 270 263 252 243 238 234 234 234 235 238 244 250 258 264 270 277 284 289 296 308 315 319 320 322 324 326 328 329 329 328 327 323 318 315 314 314 313 312 310 310 311 311 313 317 322 322 323 324 327 330 332 333 332 333 332 331 330 329 329 328 326 324 321 319 319 322 322 322 321 321 322 322 322 322 322 323 324 324 325 324 323 322 319 316
269 265 256 245 238 235 234 235 236 237 239 244 252 258 262 269 276 280 288 300 308 312 315 315 317 321 324 327 328 329 329 328 325 317 309 306 307 307 305 303 304 305 307 309 313 315 316 319 321 324 329 331 331 330 330 330 330 329 329 329 327 325 323 321 319 319 322 324 324 322 321 321 321 322 321 322 322 323 324 325 326 325 323 320 316
267 261 251 240 235 234 235 237 237 237 240 245 250 255 261 266 272 277 286 298 302 305 307 308 314 318 323 327 329 333 333 331 327 317 309 306 305 304 302 300 301 302 302 305 308 311 313 317 320 324 330 333 333 330 330 330 329 329 330 330 326 323 321 321 320 319 322 324 323 320 319 320 319 320 320 320 319 319 321 323 324 324 322 319 315
260 253 246 239 235 236 237 238 238 239 240 243 248 253 258 263 269 277 284 289 294 295 294 301 310 316 323 328 332 335 336 334 328 320 312 309 309 306 303 299 300 301 299 299 302 306 311 317 321 326 331 335 335 332 332 331 328 329 330 330 327 323 321 321 319 318 318 319 319 317 316 316 316 317 317 318 318 318 318 320 321 322 322 318 314
252 245 243 240 236 238 240 241 240 240 240 242 246 250 255 262 268 272 278 282 283 280 282 294 304 313 321 328 332 334 335 334 330 325 318 314 313 309 303 297 298 299 296 295 298 304 311 318 321 324 328 331 334 334 332 328 326 328 329 329 328 326 323 321 320 317 315 315 314 313 312 312 313 314 315 316 316 315 315 316 318 319 319 316 312
248 242 241 241 240 242 243 243 241 240 240 242 243 247 254 259 263 266 270 270 269 269 273 284 297 308 319 327 331 331 332 332 330 327 318 313 313 309 302 295 296 295 294 293 296 306 313 317 320 322 324 327 331 332 329 324 325 327 327 328 328 326 324 322 320 317 314 313 311 309 309 309 311 312 312 313 312 311 310 311 312 313 313 310 307
245 242 240 241 243 244 244 243 242 241 240 240 242 246 252 255 256 258 258 260 263 262 265 276 290 305 319 326 327 327 328 330 329 325 315 312 318 314 302 295 294 293 290 290 293 304 311 315 319 320 322 324 328 329 326 323 324 325 324 325 326 325 323 320 319 317 314 313 311 310 309 309 309 310 310 310 310 309 308 307 308 309 308 307 305
243 241 241 240 242 243 242 243 242 241 240 240 243 245 248 249 249 250 251 255 258 257 259 270 285 301 315 321 322 323 327 332 328 325 318 314 322 315 303 301 301 299 293 289 293 302 309 314 317 320 322 325 327 326 324 322 322 323 322 322 324 324 321 319 317 314 312 311 310 310 311 311 310 311 311 310 309 308 307 305 305 304 304 304 304
242 241 239 239 240 240 240 242 242 241 242 241 242 243 245 244 244 246 249 251 252 253 256 264 279 295 309 315 320 322 325 331 325 325 322 317 324 317 305 305 306 308 307 304 305 310 314 315 318 321 324 326 326 324 322 321 321 322 322 321 322 323 321 319 318 315 311 310 308 307 308 309 309 310 311 311 311 310 308 304 302 301 301 300 302
242 240 238 238 237 237 238 239 240 241 241 241 241 242 242 242 243 244 247 249 250 252 255 262 274 287 302 311 318 323 325 329 326 327 326 321 324 320 311 311 312 310 309 311 312 315 317 319 322 323 325 326 324 322 322 322 323 324 323 322 321 321 321 320 319 318 315 313 309 306 305 305 305 306 307 309 311 312 310 305 301 299 299 299 300
243 241 238 236 235 236 237 237 237 237 237 238 240 241 242 243 244 245 246 248 250 252 255 261 271 282 296 309 316 323 326 327 326 324 325 327 327 323 317 315 313 308 308 311 312 315 317 320 322 323 324 325 324 323 323 323 323 324 323 322 320 319 320 319 318 318 317 316 314 310 306 304 303 303 304 307 309 311 311 307 302 297 295 296 297
244 242 238 236 235 234 235 234 233 234 235 237 239 241 242 244 244 245 247 248 250 251 254 259 267 280 295 309 315 322 327 325 324 323 324 329 328 325 322 316 313 310 312 315 314 315 315 317 318 319 321 320 321 322 321 322 321 321 320 319 319 318 318 317 315 315 315 315 315 314 310 306 304 304 304 305 306 308 309 308 303 298 295 294 294
246 243 239 236 234 234 233 232 232 233 235 236 238 240 242 244 245 246 247 248 250 250 252 256 262 276 291 306 313 319 325 325 325 323 322 323 322 323 323 319 316 314 314 313 312 313 314 316 315 316 318 316 316 319 318 319 319 318 317 317 316 315 315 315 314 313 313 313 314 314 312 310 309 307 305 304 305 306 306 307 305 300 295 292 292
248 242 238 235 234 234 233 231 232 233 234 236 237 239 241 243 246 246 247 247 247 248 250 254 261 272 285 298 305 311 320 323 324 324 322 322 320 322 322 321 319 317 316 314 313 314 315 315 315 315 316 315 315 316 316 316 317 315 315 315 314 312 312 313 312 311 312 312 314 313 311 310 310 309 308 305 305 305 305 306 307 304 295 289 288
245 240 236 234 233 233 233 232 233 233 234 235 236 237 239 241 244 245 248 248 248 251 253 257 262 269 280 293 299 303 311 318 323 324 325 325 323 322 322 322 321 320 320 318 316 315 315 315 315 315 315 314 313 313 313 314 314 312 312 312 311 310 310 311 309 308 310 311 313 312 311 311 309 307 306 305 304 303 303 304 305 305 299 289 284
240 237 235 232 233 232 232 232 233 234 233 234 234 234 237 239 242 245 247 249 252 254 256 259 262 267 278 290 295 296 303 312 318 323 325 327 326 324 323 323 322 322 321 319 318 316 316 317 316 315 314 313 312 311 311 311 311 310 309 309 309 309 309 309 309 308 309 310 310 310 309 310 309 303 300 302 303 301 300 300 300 300 300 295 285
238 234 233 231 232 232 233 234 234 235 234 233 231 230 234 237 242 245 247 250 252 253 255 258 261 268 278 287 290 291 296 304 312 319 322 324 325 325 325 324 323 322 321 320 320 318 318 318 317 316 314 313 311 310 309 309 309 309 309 308 308 308 308 310 310 309 309 309 310 310 307 307 308 305 302 301 298 298 298 296 296 294 294 295 289
237 232 232 231 232 233 236 237 237 236 234 231 228 228 233 238 243 246 249 250 251 252 254 258 263 270 279 286 288 288 293 298 306 312 316 319 321 323 323 323 323 321 321 319 317 317 318 318 316 316 314 313 311 309 308 308 308 308 308 307 307 308 309 310 310 310 310 311 312 311 308 306 305 306 306 304 299 296 294 293 294 293 290 289 290
236 232 230 230 233 235 235 236 235 234 231 228 225 225 231 237 243 247 251 251 251 253 255 259 265 272 280 285 287 289 290 293 300 305 309 313 314 317 319 320 321 320 319 316 313 315 317 316 315 315 314 313 311 309 309 309 308 307 307 306 307 308 308 308 308 308 309 311 312 311 309 308 307 306 305 304 303 300 295 293 294 294 290 286 286
235 230 227 229 231 232 236 238 236 231 227 224 220 220 228 236 243 248 251 252 253 255 257 261 267 274 279 283 286 288 287 290 294 297 302 306 308 311 314 316 316 316 315 314 313 314 315 315 314 313 313 313 312 311 311 310 309 308 307 306 306 308 308 308 308 308 309 310 311 311 310 310 310 310 308 306 305 303 299 297 295 292 288 284 283
235 230 226 227 227 227 232 236 237 233 224 217 214 216 226 236 242 246 250 253 255 257 260 264 268 273 277 281 285 285 284 286 289 293 298 301 304 306 307 310 310 311 311 311 312 312 313 313 313 312 312 312 311 310 310 309 308 307 306 306 306 308 309 309 308 308 308 309 309 309 310 311 310 311 312 312 310 306 303 301 298 295 290 284 282
238 236 232 228 224 223 227 229 232 233 223 216 216 216 223 233 239 242 248 255 258 260 262 264 268 271 277 281 282 282 282 284 288 292 296 299 301 302 303 306 306 308 310 310 310 311 312 311 310 310 310 309 309 308 308 308 307 307 306 305 305 306 307 308 307 306 306 306 306 307 309 310 310 312 314 316 315 311 307 305 301 299 295 289 284
241 239 233 225 220 220 224 224 224 227 225 223 221 217 224 235 240 243 248 259 264 264 264 264 268 272 278 282 281 281 283 286 290 291 293 296 297 299 300 302 303 304 306 307 307 308 308 308 308 308 308 309 309 309 308 308 307 307 305 304 304 303 304 304 303 303 304 304 304 306 308 308 309 310 312 314 315 314 312 309 305 301 298 294 290
236 233 225 219 220 219 221 222 220 222 224 225 226 223 227 232 238 246 253 261 266 267 267 266 268 271 275 281 282 283 285 287 289 290 291 293 295 296 297 299 300 299 301 303 304 306 307 308 308 308 309 309 309 309 309 308 308 306 305 304 303 302 301 301 301 302 303 303 303 304 306 307 307 308 309 310 312 312 313 312 311 307 302 300 297
234 231 226 216 215 218 224 226 221 218 218 223 233 231 229 233 242 252 257 262 266 268 269 268 269 273 277 283 286 287 289 290 290 291 292 293 296 298 299 301 302 302 303 305 306 307 309 309 309 309 309 309 308 308 308 308 307 306 305 303 302 302 300 300 300 301 302 302 301 303 305 308 309 310 310 311 312 312 312 313 315 312 307 303 300
230 233 234 226 217 218 224 226 221 218 220 227 235 238 243 252 255 257 259 263 267 269 271 272 274 278 283 288 291 291 292 293 294 295 295 295 297 299 300 302 304 305 306 307 308 309 310 310 309 309 308 308 308 308 308 308 307 305 304 303 302 301 300 300 300 300 300 299 299 300 303 306 309 310 309 311 312 313 313 313 314 314 311 306 299
225 229 234 233 226 220 220 221 220 220 222 225 230 238 246 253 256 259 261 264 267 269 271 273 275 280 285 288 290 291 292 293 294 295 296 296 297 298 299 301 303 305 306 308 308 309 309 309 309 308 308 307 307 307 307 306 305 305 303 302 300 299 298 298 298 298 299 299 299 300 301 302 304 305 306 308 310 312 313 313 313 313 313 310 304
232 232 232 231 226 222 222 223 222 225 232 233 238 247 252 255 260 262 264 266 268 270 272 274 277 281 284 286 287 289 290 291 293 294 295 297 298 300 301 303 304 306 306 307 308 308 308 307 307 306 306 306 305 305 305 304 304 303 302 301 300 298 297 296 295 295 297 298 298 299 299 300 301 302 304 306 308 310 312 312 312 311 311 311 307
243 240 238 235 229 227 229 230 229 239 250 254 256 261 263 263 265 267 269 271 273 275 277 280 282 283 285 286 288 290 292 293 294 295 297 299 301 302 304 305 306 307 308 308 308 308 307 307 306 305 304 303 302 302 302 302 302 302 301 300 299 298 296 295 293 292 291 292 295 296 297 297 299 300 301 303 305 307 308 309 311 311 311 310 307
261 252 246 240 234 231 235 237 239 250 257 261 263 263 265 267 269 271 273 275 277 279 281 283 284 284 286 288 290 293 294 296 297 299 301 302 304 305 306 307 308 309 309 309 309 308 307 306 305 304 302 301 300 300 299 299 299 300 300 299 299 298 297 295 294 292 290 287 288 292 294 295 296 297 297 299 300 301 302 304 306 307 308 309 308
268 253 243 241 241 239 243 249 255 262 263 264 265 266 268 270 271 273 275 277 278 280 281 283 284 285 288 290 292 294 295 297 299 301 303 304 306 307 308 309 310 310 310 311 310 309 307 306 305 304 302 301 300 298 298 298 297 297 297 297 297 297 296 295 294 293 292 289 286 286 288 290 293 294 294 294 296 296 297 298 300 302 304 306 306
258 244 236 241 248 250 255 258 260 262 262 263 266 267 269 269 271 275 276 278 279 280 282 284 286 288 290 292 293 295 297 298 300 301 303 304 305 307 308 309 310 310 311 311 310 309 308 306 305 303 302 301 299 298 297 297 296 296 295 294 294 294 294 294 293 293 292 291 289 286 285 286 287 290 291 292 292 293 293 294 295 296 298 301 303
246 240 237 241 246 250 254 254 255 257 259 261 264 265 267 269 271 274 275 278 281 283 285 286 287 289 291 293 294 296 298 299 301 301 302 303 304 306 307 308 310 310 311 311 310 310 308 307 305 303 302 300 299 297 296 295 295 294 294 293 292 291 291 291 291 290 290 290 289 288 286 285 285 286 288 290 290 290 291 292 292 293 294 295 298
Height
5884 5884 5884 5883 5883 5882 5881 5880 5880 5879 5878 5877 5875 5874 5873 5872 5871 5870 5870 5869 5868 5867 5866 5865 5863 5862 5861 5860 5859 5858 5857 5856 5854 5853 5852 5851 5851 5850 5850 5849 5849 5849 5848 5847 5847 5846 5846 5845 5844 5844 5843 5842 5842 5841 5840 5840 5839 5839 5838 5838 5837 5836 5836 5836 5835 5835 5835 5834 5834 5834 5834 5834 5834 5834 5834 5833 5833 5833 5833 5833 5833 5833 5833 5833 5832
5883 5884 5883 5883 5882 5881 5881 5880 5879 5878 5877 5876 5875 5874 5873 5872 5871 5870 5870 5869 5868 5867 5866 5865 5864 5862 5861 5860 5859 5858 5857 5856 5855 5854 5852 5852 5851 5850 5850 5849 5849 5849 5848 5848 5847 5846 5846 5845 5844 5844 5843 5842 5842 5841 5840 5840 5840 5839 5839 5838 5837 5837 5836 5836 5835 5835 5835 5834 5834 5834 5834 5834 5834 5834 5833 5833 5833 5833 5833 5833 5833 5833 5832 5832 5832
5883 5883 5883 5882 5882 5881 5880 5879 5878 5877 5876 5875 5874 5873 5872 5872 5871 5870 5869 5869 5868 5867 5866 5865 5864 5862 5861 5860 5859 5858 5857 5856 5855 5854 5853 5852 5851 5851 5850 5850 5849 5849 5849 5848 5847 5847 5846 5845 5845 5844 5844 5843 5842 5841 5841 5840 5840 5840 5839 5839 5838 5837 5837 5836 5836 5835 5835 5834 5834 5834 5834 5834 5834 5833 5833 5833 5833 5833 5833 5832 5832 5832 5832 5832 5831
5883 5883 5882 5882 5881 5880 5879 5879 5878 5877 5876 5875 5874 5873 5872 5872 5871 5870 5869 5868 5868 5867 5866 5865 5864 5863 5862 5861 5860 5858 5857 5856 5855 5854 5853 5852 5852 5851 5851 5850 5850 5849 5849 5848 5848 5847 5846 5846 5845 5845 5844 5843 5842 5842 5841 5841 5840 5840 5839 5839 5839 5838 5837 5837 5836 5835 5835 5835 5834 5834 5834 5834 5834 5833 5833 5833 5833 5833 5832 5832 5832 5832 5832 5831 5831
5882 5882 5881 5881 5880 5879 5879 5878 5877 5876 5875 5874 5873 5872 5872 5871 5871 5870 5869 5868 5867 5866 5866 5865 5864 5863 5862 5861 5860 5859 5858 5856 5855 5854 5854 5853 5852 5851 5851 5850 5850 5850 5849 5849 5848 5847 5846 5846 5845 5845 5844 5843 5843 5842 5842 5841 5841 5840 5840 5839 5839 5838 5838 5837 5836 5836 5835 5835 5834 5834 5834 5833 5833 5833 5833 5833 5833 5832 5832 5832 5832 5831 5831 5831 5831
5881 5881 5880 5880 5879 5878 5878 5877 5876 5875 5874 5873 5872 5872 5871 5871 5870 5869 5869 5868 5867 5866 5866 5865 5864 5863 5862 5861 5860 5859 5858 5857 5856 5854 5854 5853 5852 5852 5851 5850 5850 5850 5849 5849 5848 5847 5847 5846 5846 5845 5845 5844 5843 5842 5842 5841 5841 5840 5840 5839 5839 5838 5838 5837 5837 5836 5835 5835 5834 5834 5834 5833 5833 5833 5833 5832 5832 5832 5832 5831 5831 5831 5831 5830 5830
5880 5880 5879 5878 5878 5877 5876 5876 5875 5874 5873 5873 5872 5871 5871 5870 5870 5869 5869 5868 5867 5866 5865 5865 5864 5864 5863 5862 5860 5859 5858 5857 5856 5855 5854 5853 5852 5852 5851 5851 5850 5850 5849 5849 5848 5847 5847 5846 5846 5845 5845 5844 5843 5843 5842 5841 5841 5840 5840 5839 5839 5838 5838 5838 5837 5836 5835 5835 5834 5834 5834 5833 5833 5833 5832 5832 5832 5831 5831 5831 5831 5830 5830 5830 5829
5879 5879 5878 5877 5876 5876 5875 5875 5874 5873 5872 5872 5871 5871 5870 5870 5869 5869 5868 5867 5867 5866 5865 5865 5864 5864 5863 5862 5861 5859 5858 5857 5856 5855 5854 5853 5853 5852 5851 5851 5850 5850 5850 5849 5849 5848 5847 5846 5846 5845 5845 5844 5843 5843 5842 5841 5841 5840 5840 5839 5839 5839 5838 5838 5837 5837 5836 5835 5835 5834 5834 5833 5833 5832 5832 5832 5831 5831 5831 5830 5830 5830 5830 5829 5829
5878 5878 5877 5876 5875 5875 5874 5874 5873 5872 5871 5871 5870 5870 5869 5869 5869 5868 5868 5867 5866 5866 5865 5865 5864 5863 5863 5862 5861 5860 5858 5857 5856 5855 5854 5854 5853 5852 5852 5851 5851 5851 5850 5850 5849 5848 5847 5846 5846 5845 5845 5844 5843 5843 5842 5841 5841 5840 5840 5839 5839 5838 5838 5837 5837 5837 5836 5835 5835 5834 5834 5833 5833 5832 5832 5831 5831 5831 5830 5830 5830 5829 5829 5828 5828
5877 5876 5875 5874 5874 5873 5873 5872 5872 5871 5870 5870 5869 5869 5869 5869 5868 5868 5867 5867 5866 5866 5865 5865 5864 5863 5863 5862 5861 5860 5858 5857 5856 5855 5854 5854 5853 5852 5852 5851 5851 5851 5850 5850 5849 5848 5847 5846 5846 5845 5845 5844 5843 5842 5842 5841 5841 5840 5839 5839 5838 5838 5837 5837 5837 5836 5836 5835 5834 5834 5833 5833 5832 5832 5831 5831 5830 5830 5830 5829 5829 5829 5828 5828 5827
5875 5874 5873 5873 5873 5872 5872 5871 5870 5870 5869 5869 5869 5869 5868 5868 5868 5868 5867 5866 5866 5865 5865 5864 5864 5863 5862 5862 5861 5860 5859 5857 5856 5855 5854 5854 5853 5852 5852 5852 5851 5851 5850 5849 5849 5848 5847 5846 5846 5845 5844 5844 5843 5843 5842 5841 5841 5840 5839 5839 5838 5837 5837 5836 5836 5835 5835 5834 5834 5833 5833 5832 5831 5831 5831 5830 5830 5829 5829 5829 5829 5828 5828 5827 5827
5873 5872 5872 5872 5871 5871 5871 5870 5869 5868 5868 5868 5868 5868 5868 5868 5868 5867 5867 5866 5866 5865 5865 5864 5863 5863 5862 5862 5861 5860 5859 5858 5856 5855 5854 5853 5853 5852 5852 5852 5851 5850 5850 5849 5848 5848 5847 5846 5846 5845 5844 5844 5843 5842 5842 5841 5841 5840 5839 5839 5838 5837 5836 5836 5835 5835 5834 5833 5833 5832 5832 5831 5831 5830 5830 5829 5829 5829 5828 5828 5828 5828 5827 5827 5826
5871 5871 5871 5870 5870 5870 5869 5869 5868 5867 5867 5867 5867 5868 5868 5868 5867 5867 5866 5865 5865 5865 5864 5864 5863 5862 5862 5861 5860 5860 5859 5857 5856 5855 5854 5853 5853 5852 5852 5851 5851 5850 5850 5849 5848 5847 5847 5846 5845 5845 5844 5843 5843 5842 5842 5841 5841 5840 5839 5839 5838 5837 5836 5836 5835 5834 5834 5833 5832 5832 5831 5831 5830 5830 5829 5829 5828 5828 5827 5827 5827 5827 5827 5826 5826
5869 5869 5869 5869 5868 5868 5868 5867 5867 5867 5867 5867 5867 5867 5867 5867 5866 5866 5866 5865 5865 5864 5864 5863 5863 5862 5861 5861 5860 5859 5858 5857 5856 5855 5854 5853 5852 5852 5851 5850 5850 5849 5849 5849 5848 5847 5846 5846 5845 5844 5844 5843 5843 5842 5842 5841 5841 5840 5839 5838 5838 5837 5836 5835 5835 5834 5834 5833 5832 5832 5831 5830 5830 5829 5829 5828 5827 5827 5826 5826 5826 5826 5825 5825 5824
5868 5868 5868 5867 5867 5866 5866 5866 5866 5866 5866 5866 5866 5866 5866 5866 5866 5865 5865 5865 5864 5864 5863 5863 5863 5862 5861 5860 5860 5859 5858 5857 5856 5854 5853 5852 5852 5851 5850 5850 5849 5849 5849 5849 5848 5847 5846 5845 5845 5844 5843 5843 5842 5842 5841 5841 5840 5839 5839 5838 5837 5836 5836 5835 5834 5834 5833 5833 5832 5831 5831 5830 5829 5829 5828 5827 5827 5826 5825 5825 5824 5824 5824 5823 5823
5867 5867 5866 5865 5865 5865 5865 5865 5865 5865 5865 5865 5865 5865 5865 5865 5865 5865 5864 5864 5864 5863 5863 5862 5862 5861 5860 5860 5859 5858 5857 5856 5855 5854 5853 5852 5851 5850 5850 5849 5848 5848 5847 5848 5847 5846 5846 5845 5844 5844 5843 5842 5842 5841 5841 5840 5840 5839 5838 5837 5837 5836 5835 5834 5834 5834 5833 5833 5832 5831 5830 5830 5829 5828 5828 5827 5826 5825 5824 5824 5823 5823 5822 5822 5821
5865 5865 5864 5864 5863 5863 5864 5864 5864 5864 5864 5864 5864 5865 5865 5865 5864 5864 5864 5864 5863 5863 5863 5862 5861 5860 5860 5859 5858 5857 5857 5856 5854 5853 5852 5851 5850 5850 5849 5848 5847 5846 5846 5846 5847 5846 5845 5845 5844 5843 5842 5841 5841 5840 5840 5839 5839 5838 5837 5837 5836 5835 5834 5834 5833 5833 5833 5832 5832 5831 5830 5829 5829 5828 5827 5826 5825 5824 5824 5823 5822 5822 5821 5821 5820
5864 5863 5863 5862 5862 5862 5863 5863 5863 5863 5863 5863 5863 5864 5864 5864 5863 5863 5863 5863 5863 5862 5862 5861 5861 5860 5859 5858 5857 5856 5856 5855 5854 5853 5852 5851 5850 5849 5848 5848 5847 5846 5845 5845 5846 5846 5845 5844 5843 5842 5842 5841 5840 5840 5839 5839 5838 5837 5836 5836 5835 5834 5834 5833 5832 5832 5832 5831 5831 5830 5829 5829 5828 5827 5826 5826 5825 5824 5823 5822 5822 5821 5821 5820 5819
5862 5861 5861 5861 5861 5862 5862 5861 5861 5861 5862 5862 5863 5863 5863 5863 5863 5863 5862 5862 5862 5862 5862 5861 5860 5859 5858 5858 5857 5856 5855 5854 5853 5852 5851 5850 5849 5849 5848 5847 5846 5845 5844 5843 5844 5844 5844 5843 5842 5842 5841 5840 5840 5839 5839 5838 5837 5836 5835 5835 5834 5833 5832 5832 5831 5831 5831 5830 5830 5829 5829 5828 5827 5826 5826 5825 5824 5823 5822 5822 5821 5820 5819 5819 5818
5860 5860 5860 5860 5860 5861 5861 5860 5860 5861 5861 5862 5862 5862 5862 5862 5862 5862 5862 5862 5862 5861 5861 5860 5859 5858 5858 5857 5856 5855 5854 5853 5852 5851 5850 5849 5849 5848 5847 5846 5845 5844 5843 5843 5842 5843 5843 5842 5842 5841 5841 5840 5839 5839 5838 5837 5836 5835 5834 5834 5833 5832 5831 5831 5830 5830 5830 5830 5829 5828 5827 5827 5826 5825 5824 5824 5823 5822 5822 5821 5820 5819 5818 5817 5817
5858 5858 5858 5858 5859 5859 5860 5859 5859 5860 5860 5861 5861 5861 5861 5862 5862 5861 5861 5861 5861 5860 5860 5859 5858 5858 5857 5856 5855 5855 5853 5852 5851 5850 5849 5849 5848 5847 5847 5846 5845 5844 5843 5842 5841 5841 5841 5841 5841 5840 5840 5839 5839 5838 5837 5836 5835 5834 5834 5833 5832 5831 5830 5830 5829 5829 5829 5829 5828 5827 5826 5826 5825 5824 5823 5823 5822 5821 5820 5820 5819 5818 5817 5816 5815
5857 5857 5857 5857 5858 5859 5859 5858 5858 5859 5860 5860 5860 5860 5860 5861 5861 5860 5860 5860 5860 5860 5859 5858 5858 5857 5856 5856 5855 5854 5853 5851 5850 5849 5849 5848 5848 5847 5846 5845 5844 5843 5842 5842 5841 5840 5839 5839 5839 5839 5839 5838 5838 5837 5836 5835 5834 5833 5832 5832 5831 5830 5829 5829 5829 5828 5828 5827 5827 5826 5825 5824 5824 5823 5822 5821 5820 5820 5819 5818 5818 5817 5816 5815 5814
5856 5856 5856 5857 5858 5858 5858 5857 5858 5858 5859 5859 5859 5860 5860 5860 5860 5859 5859 5859 5859 5859 5858 5857 5857 5856 5855 5855 5854 5853 5852 5850 5849 5849 5848 5847 5847 5846 5845 5844 5844 5843 5842 5841 5840 5839 5838 5838 5838 5837 5837 5837 5836 5836 5835 5834 5833 5832 5831 5831 5830 5829 5829 5828 5828 5827 5826 5826 5825 5824 5824 5823 5822 5822 5821 5820 5819 5818 5818 5817 5816 5815 5815 5814 5813
5855 5855 5855 5856 5857 5857 5857 5857 5857 5857 5858 5858 5858 5859 5859 5859 5858 5858 5858 5858 5858 5858 5857 5857 5856 5855 5855 5854 5853 5852 5851 5849 5849 5848 5847 5846 5846 5845 5844 5844 5843 5842 5841 5840 5840 5839 5838 5837 5836 5836 5836 5836 5835 5835 5834 5833 5832 5831 5830 5829 5829 5828 5828 5827 5826 5825 5825 5824 5824 5823 5822 5821 5821 5820 5819 5819 5818 5817 5816 5815 5815 5814 5813 5813 5812
5854 5854 5855 5855 5855 5856 5856 5856 5856 5856 5857 5857 5857 5858 5858 5858 5857 5857 5857 5857 5857 5857 5856 5856 5855 5855 5854 5853 5852 5851 5849 5848 5848 5847 5846 5845 5845 5844 5844 5843 5842 5841 5840 5840 5839 5838 5837 5836 5835 5835 5834 5834 5834 5834 5833 5832 5831 5830 5829 5828 5828 5827 5826 5826 5825 5824 5823 5823 5822 5821 5821 5820 5819 5818 5818 5817 5816 5815 5815 5814 5813 5812 5812 5811 5811
5852 5853 5854 5854 5854 5854 5854 5855 5855 5856 5856 5856 5856 5856 5856 5856 5856 5856 5855 5856 5856 5855 5855 5855 5854 5854 5853 5852 5850 5850 5849 5848 5847 5846 5845 5844 5844 5844 5843 5842 5842 5841 5840 5839 5838 5838 5837 5836 5835 5834 5833 5832 5832 5832 5831 5831 5830 5829 5828 5828 5827 5826 5825 5824 5824 5823 5822 5822 5821 5820 5819 5818 5817 5817 5816 5816 5815 5814 5813 5813 5812 5811 5810 5810 5809
5851 5852 5852 5853 5853 5853 5853 5853 5854 5854 5855 5855 5855 5855 5855 5855 5855 5855 5854 5854 5854 5854 5854 5854 5854 5853 5852 5851 5849 5848 5848 5848 5847 5846 5845 5844 5843 5843 5842 5842 5841 5840 5839 5839 5838 5837 5836 5835 5834 5833 5833 5831 5831 5830 5829 5829 5828 5828 5827 5826 5826 5825 5825 5824 5823 5822 5821 5820 5820 5818 5817 5817 5816 5815 5815 5814 5813 5813 5812 5812 5811 5810 5809 5808 5808
5850 5851 5851 5851 5851 5851 5852 5852 5853 5853 5853 5854 5854 5854 5854 5854 5854 5854 5853 5853 5853 5853 5853 5853 5853 5852 5852 5850 5848 5847 5847 5846 5846 5845 5845 5844 5843 5843 5841 5841 5841 5840 5839 5838 5838 5837 5836 5835 5834 5833 5832 5831 5830 5829 5828 5827 5826 5825 5825 5824 5824 5824 5824 5823 5822 5821 5820 5819 5818 5817 5816 5815 5814 5814 5813 5813 5812 5811 5811 5810 5810 5809 5808 5807 5807
5849 5849 5849 5849 5849 5850 5850 5851 5851 5851 5852 5852 5852 5852 5852 5852 5852 5852 5852 5852 5852 5851 5851 5851 5851 5851 5851 5850 5848 5847 5846 5846 5845 5845 5844 5844 5843 5842 5841 5840 5840 5839 5838 5837 5837 5836 5835 5834 5833 5832 5831 5831 5830 5829 5827 5826 5825 5824 5823 5822 5822 5822 5822 5821 5820 5819 5818 5817 5816 5816 5814 5813 5813 5812 5811 5811 5810 5810 5809 5809 5808 5808 5807 5806 5805
5847 5847 5847 5848 5848 5848 5848 5849 5849 5849 5849 5850 5851 5851 5851 5851 5851 5851 5851 5850 5850 5850 5850 5850 5850 5849 5849 5849 5848 5847 5846 5845 5845 5844 5843 5842 5842 5842 5841 5840 5840 5838 5837 5836 5836 5836 5835 5834 5833 5832 5831 5830 5829 5828 5827 5826 5825 5824 5822 5821 5821 5820 5820 5819 5819 5818 5817 5815 5814 5814 5813 5812 5811 5811 5810 5809 5809 5808 5808 5807 5807 5806 5806 5805 5804
5846 5846 5846 5845 5845 5845 5846 5846 5846 5847 5848 5848 5849 5849 5850 5849 5849 5849 5849 5849 5849 5848 5848 5848 5848 5848 5848 5848 5847 5846 5846 5845 5844 5843 5843 5842 5842 5842 5841 5840 5839 5838 5837 5836 5836 5835 5834 5833 5833 5832 5831 5830 5829 5828 5827 5826 5825 5824 5822 5821 5820 5819 5818 5818 5817 5816 5815 5814 5813 5812 5811 5810 5809 5809 5809 5808 5807 5807 5806 5806 5805 5805 5804 5804 5803
5844 5843 5843 5843 5843 5843 5843 5844 5844 5845 5846 5846 5847 5848 5848 5848 5847 5847 5847 5847 5847 5846 5847 5847 5847 5847 5847 5847 5846 5846 5845 5845 5844 5843 5843 5843 5842 5841 5840 5839 5838 5837 5837 5836 5835 5834 5833 5832 5832 5831 5830 5829 5828 5827 5826 5825 5824 5823 5821 5820 5819 5818 5817 5817 5815 5814 5814 5813 5812 5810 5810 5809 5808 5807 5806 5806 5805 5804 5804 5804 5803 5803 5802 5802 5801
5841 5841 5841 5841 5841 5841 5842 5842 5843 5844 5844 5845 5845 5846 5846 5846 5846 5845 5845 5845 5845 5845 5845 5846 5846 5846 5845 5845 5845 5844 5844 5844 5843 5843 5842 5842 5841 5840 5840 5839 5838 5837 5836 5835 5834 5833 5832 5831 5831 5830 5829 5828 5827 5826 5825 5823 5822 5821 5820 5819 5818 5817 5816 5815 5814 5813 5812 5811 5810 5809 5807 5807 5806 5805 5804 5803 5802 5802 5801 5801 5801 5800 5800 5799 5799
5838 5839 5839 5839 5839 5839 5840 5841 5841 5842 5843 5843 5843 5843 5843 5843 5843 5843 5843 5843 5844 5844 5844 5845 5845 5844 5844 5844 5843 5843 5843 5843 5842 5841 5841 5840 5840 5839 5838 5838 5837 5836 5835 5834 5833 5832 5831 5830 5829 5829 5828 5827 5826 5825 5824 5823 5821 5820 5819 5818 5816 5815 5814 5814 5813 5811 5810 5809 5808 5807 5805 5804 5803 5802 5801 5800 5800 5799 5798 5798 5798 5798 5797 5797 5796
5835 5836 5836 5836 5836 5838 5839 5840 5840 5841 5841 5841 5841 5841 5841 5841 5841 5841 5841 5842 5843 5843 5843 5843 5843 5843 5842 5842 5842 5842 5842 5841 5841 5840 5840 5839 5838 5838 5837 5836 5835 5835 5834 5832 5832 5831 5830 5829 5828 5827 5826 5826 5825 5824 5823 5822 5820 5819 5818 5817 5815 5814 5813 5812 5811 5809 5808 5807 5806 5805 5804 5803 5801 5799 5799 5799 5798 5796 5795 5795 5794 5794 5794 5794 5794
5832 5832 5832 5833 5834 5837 5838 5838 5839 5839 5839 5838 5838 5839 5839 5839 5840 5840 5840 5840 5841 5841 5842 5842 5842 5842 5841 5841 5841 5840 5840 5840 5840 5839 5838 5838 5837 5836 5836 5835 5834 5833 5832 5831 5830 5829 5828 5827 5826 5826 5825 5824 5823 5822 5821 5820 5819 5818 5817 5816 5814 5813 5811 5810 5809 5808 5806 5805 5803 5802 5801 5800 5800 5799 5797 5796 5795 5794 5792 5792 5791 5791 5791 5791 5790
5828 5828 5830 5832 5834 5836 5836 5836 5836 5836 5836 5836 5836 5836 5837 5838 5838 5838 5839 5839 5839 5839 5840 5840 5840 5840 5840 5840 5839 5839 5839 5839 5838 5838 5837 5836 5836 5835 5834 5834 5833 5832 5831 5830 5828 5827 5826 5826 5825 5824 5823 5822 5821 5820 5819 5818 5817 5816 5815 5814 5812 5811 5810 5809 5808 5806 5805 5804 5802 5800 5799 5798 5797 5797 5795 5793 5791 5791 5791 5790 5789 5788 5788 5787 5787
5824 5826 5830 5831 5831 5832 5832 5834 5834 5833 5834 5834 5832 5834 5835 5836 5837 5837 5837 5837 5838 5838 5838 5838 5838 5839 5839 5838 5838 5838 5838 5837 5837 5837 5836 5835 5834 5834 5833 5832 5832 5831 5830 5828 5827 5826 5825 5824 5823 5822 5821 5820 5819 5818 5817 5816 5815 5814 5813 5811 5810 5809 5808 5807 5806 5804 5803 5802 5801 5799 5797 5796 5795 5794 5793 5792 5790 5789 5788 5788 5787 5785 5785 5784 5784
5824 5826 5828 5828 5827 5830 5831 5834 5835 5834 5835 5833 5830 5831 5833 5834 5834 5835 5835 5835 5836 5836 5836 5837 5837 5837 5837 5837 5837 5836 5836 5836 5836 5835 5835 5834 5833 5833 5832 5831 5830 5829 5828 5827 5826 5825 5824 5823 5821 5820 5819 5818 5817 5816 5815 5814 5813 5812 5811 5809 5808 5807 5806 5805 5804 5803 5802 5801 5800 5798 5796 5794 5793 5792 5791 5790 5788 5785 5784 5785 5784 5781 5781 5781 5781
5825 5826 5826 5826 5827 5830 5831 5832 5834 5834 5835 5833 5829 5829 5832 5832 5832 5833 5833 5834 5834 5834 5835 5835 5835 5835 5835 5835 5835 5835 5835 5834 5834 5833 5833 5832 5832 5831 5830 5829 5828 5828 5827 5825 5825 5824 5822 5821 5820 5819 5818 5817 5815 5814 5813 5812 5811 5810 5809 5807 5806 5805 5804 5803 5802 5801 5800 5799 5798 5796 5795 5793 5791 5790 5789 5788 5786 5783 5782 5782 5781 5780 5779 5778 5778
5824 5824 5824 5826 5827 5829 5830 5830 5831 5832 5834 5832 5828 5828 5830 5830 5830 5831 5832 5832 5832 5833 5833 5833 5834 5834 5834 5833 5833 5833 5833 5833 5832 5832 5831 5831 5830 5829 5829 5828 5827 5826 5825 5824 5823 5822 5821 5820 5818 5817 5816 5815 5814 5813 5811 5810 5809 5808 5806 5805 5804 5803 5802 5801 5800 5799 5798 5797 5796 5795 5793 5791 5789 5787 5786 5786 5784 5782 5781 5779 5779 5778 5777 5776 5776
5823 5823 5823 5824 5825 5827 5828 5828 5829 5830 5832 5832 5828 5827 5828 5828 5829 5830 5830 5830 5831 5831 5832 5832 5832 5832 5832 5832 5832 5832 5831 5831 5831 5830 5830 5829 5828 5828 5827 5826 5825 5824 5823 5822 5821 5820 5819 5818 5816 5815 5814 5812 5811 5810 5809 5808 5807 5805 5804 5803 5801 5800 5799 5799 5797 5796 5795 5794 5794 5793 5791 5790 5788 5786 5784 5783 5782 5780 5779 5778 5777 5776 5775 5774 5773
5822 5821 5821 5822 5824 5825 5826 5826 5827 5828 5831 5832 5828 5825 5824 5825 5827 5828 5828 5829 5829 5830 5830 5830 5830 5830 5830 5830 5830 5830 5829 5829 5828 5828 5828 5827 5826 5825 5825 5824 5823 5822 5821 5820 5819 5818 5817 5815 5814 5813 5811 5810 5808 5807 5807 5805 5804 5803 5802 5800 5799 5797 5796 5796 5795 5794 5793 5792 5791 5790 5789 5787 5786 5784 5782 5780 5780 5778 5776 5775 5775 5773 5772 5771 5770
5821 5820 5820 5820 5822 5823 5823 5825 5825 5827 5829 5829 5827 5823 5822 5824 5826 5826 5827 5828 5828 5828 5828 5829 5829 5828 5828 5828 5828 5828 5828 5827 5826 5826 5825 5825 5824 5823 5823 5822 5821 5820 5819 5817 5816 5815 5814 5813 5812 5810 5809 5808 5806 5804 5803 5802 5801 5800 5799 5798 5797 5795 5793 5793 5792 5791 5790 5789 5788 5787 5787 5785 5784 5782 5780 5779 5777 5776 5774 5773 5772 5771 5769 5769 5768
5820 5821 5820 5820 5821 5821 5822 5823 5824 5824 5824 5825 5825 5824 5823 5823 5824 5825 5826 5826 5827 5827 5827 5827 5827 5827 5827 5827 5826 5826 5826 5825 5825 5824 5824 5823 5822 5821 5821 5820 5819 5818 5817 5816 5814 5813 5812 5811 5810 5808 5807 5806 5804 5802 5800 5799 5798 5797 5796 5795 5794 5793 5791 5790 5789 5788 5786 5785 5785 5784 5783 5782 5782 5780 5779 5777 5775 5774 5772 5771 5770 5769 5767 5766 5765
5819 5821 5820 5820 5820 5820 5820 5822 5823 5823 5822 5822 5823 5822 5822 5822 5823 5824 5824 5825 5825 5825 5825 5826 5826 5826 5825 5825 5825 5825 5824 5824 5823 5823 5822 5821 5820 5819 5819 5818 5817 5816 5814 5813 5812 5811 5810 5808 5807 5806 5804 5803 5802 5800 5798 5797 5795 5794 5793 5792 5791 5790 5789 5788 5787 5786 5785 5782 5781 5780 5780 5779 5778 5777 5776 5775 5773 5772 5770 5769 5767 5767 5766 5765 5763
5819 5819 5819 5819 5820 5819 5818 5819 5821 5822 5821 5820 5820 5820 5820 5821 5822 5822 5822 5823 5823 5823 5824 5824 5824 5824 5824 5823 5823 5823 5822 5822 5821 5821 5820 5819 5818 5817 5817 5816 5814 5813 5812 5811 5809 5808 5806 5805 5804 5803 5801 5800 5799 5797 5796 5794 5793 5791 5790 5789 5787 5786 5786 5785 5784 5783 5783 5781 5778 5777 5776 5776 5775 5774 5773 5772 5771 5770 5768 5766 5765 5764 5764 5763 5761
5816 5816 5816 5817 5817 5817 5817 5817 5819 5819 5819 5819 5819 5819 5819 5820 5820 5820 5821 5821 5821 5822 5822 5822 5822 5822 5822 5821 5821 5820 5820 5819 5819 5818 5818 5817 5816 5815 5814 5813 5812 5811 5809 5808 5806 5805 5803 5802 5800 5799 5798 5796 5795 5794 5793 5791 5790 5788 5787 5785 5784 5782 5781 5781 5780 5779 5779 5779 5778 5775 5773 5772 5772 5771 5770 5769 5768 5767 5766 5765 5763 5762 5761 5760 5759
5813 5813 5814 5814 5814 5815 5815 5815 5816 5817 5817 5817 5817 5817 5818 5819 5819 5819 5819 5819 5820 5820 5821 5820 5820 5820 5820 5819 5819 5818 5818 5817 5816 5816 5815 5814 5814 5813 5812 5811 5809 5808 5807 5805 5804 5802 5801 5799 5797 5796 5794 5793 5791 5790 5789 5787 5786 5785 5784 5782 5781 5779 5778 5776 5775 5775 5774 5775 5775 5773 5771 5769 5769 5767 5766 5766 5765 5764 5763 5763 5762 5760 5759 5758 5757
5811 5812 5813 5813 5812 5812 5813 5813 5813 5814 5815 5815 5815 5816 5817 5817 5818 5818 5818 5818 5818 5819 5819 5819 5818 5818 5817 5817 5817 5816 5815 5815 5814 5813 5813 5812 5811 5810 5809 5808 5807 5805 5804 5803 5801 5800 5798 5796 5795 5793 5791 5789 5788 5787 5785 5784 5782 5781 5780 5779 5777 5776 5774 5773 5772 5771 5770 5769 5769 5769 5768 5767 5766 5765 5762 5762 5762 5760 5759 5759 5759 5758 5757 5756 5754
5810 5810 5811 5811 5811 5812 5812 5812 5812 5813 5813 5814 5815 5816 5816 5816 5817 5817 5817 5817 5817 5817 5817 5817 5817 5816 5816 5815 5815 5814 5813 5812 5812 5811 5810 5810 5809 5808 5807 5806 5804 5803 5801 5800 5798 5797 5795 5793 5792 5790 5788 5786 5785 5783 5782 5780 5778 5777 5775 5774 5773 5772 5771 5770 5768 5767 5766 5765 5765 5765 5764 5763 5763 5762 5760 5758 5758 5757 5756 5755 5754 5754 5754 5753 5752